Location: Quedlinburg
(51.7921°N, 11.1414°E)
Time: 20:33:29
(UTC+02:00)

CUBESAT XI-V - Pass Details

Date: 25 March 2026
Orbit: 643 x 664 km, 98.3° (Epoch: 14 April)

Event Time Altitude Azimuth Distance (km) Brightness Sun altitude
Exits shadow 01:24:33 10° 75° (ENE) 2,029 ? -34.8°
Maximum altitude 01:26:14 13° 52° (NE) 1,893 ? -34.7°
Drops below altitude 10° 01:28:06 10° 27° (NNE) 2,059 ? -34.6°
Sets 01:31:32 0° 359° (N) 2,971 ? -34.5°
